Date_and_time,latitude,longitude,wind_speed,RelWindDirFrom,WindDirFrom,air_pressure,air_temperature,relative_humidity,Temp,platform_speed_wrt_ground,air_pressure_at_mean_sea_level,platform_orientation
2018-10-18 23:40,50.6304316666667,-96.9807516666667,10.6,16.6,236,978.19,19.8,28,4.45,0.0,1003.76,12.6
2018-10-18 23:50,50.6304383333333,-96.9807466666667,10.3,15.3,238,978.24,19.3,29,4.44,0.0,1003.83,12.6
2018-10-19 00:00,50.6304383333333,-96.9807483333333,8.0,11.1,238,978.23,18.8,31,4.44,0.0,1003.84,13.3
2018-10-19 00:10,50.63044,-96.98075,7.2,10.1,240,978.16,18.4,31,4.42,0.0,1003.79,13.3
2018-10-19 00:20,50.63044,-96.9807516666667,6.9,9.4,237,978.08,17.9,32,4.41,0.0,1003.73,13.3
2018-10-19 00:30,50.6304383333333,-96.9807533333333,6.3,9.7,233,977.96,17.6,33,4.44,0.0,1003.64,13.3
2018-10-19 00:40,50.6304383333333,-96.9807533333333,6.9,9.5,231,977.85,17.3,34,4.50,0.0,1003.56,13.3
2018-10-19 00:50,50.63043,-96.9807733333333,6.9,10.5,236,977.77,17.1,35,4.50,0.0,1003.51,13.3
2018-10-19 01:00,50.6304183333333,-96.9807616666667,5.9,8.7,244,977.67,16.9,36,4.48,0.0,1003.43,192.6
2018-10-19 01:10,50.6304183333333,-96.9807666666667,6.6,9.2,248,977.63,16.5,37,4.47,0.0,1003.43,192.6
2018-10-19 01:20,50.6304283333333,-96.98074,6.7,9.9,248,977.64,16.0,38,4.47,0.0,1003.48,192.6
2018-10-19 01:30,50.6304183333333,-96.9807516666667,8.0,11.0,248,977.69,16.0,38,4.46,0.0,1003.56,192.6
2018-10-19 01:40,50.6304166666667,-96.9807516666667,7.6,11.2,251,977.72,16.2,38,4.44,0.0,1003.60,192.6
2018-10-19 01:50,50.63042,-96.98075,5.8,9.1,260,977.72,15.8,39,4.44,0.0,1003.63,192.6
2018-10-19 02:00,50.6304216666667,-96.9807533333333,5.1,7.7,262,977.69,15.5,40,4.47,0.0,1003.63,234.7
2018-10-19 02:10,50.6304416666667,-96.98076,5.2,7.5,255,977.59,15.2,41,4.46,0.0,1003.57,234.7
2018-10-19 02:20,50.63043,-96.98076,5.1,7.8,248,977.42,14.7,42,4.47,0.0,1003.43,234.7
2018-10-19 02:30,50.6304316666667,-96.980755,5.5,7.5,244,977.38,14.2,43,4.50,0.0,1003.42,234.7
2018-10-19 02:40,50.6304183333333,-96.9807583333333,5.4,7.2,245,977.37,13.8,44,4.54,0.0,1003.45,234.7
2018-10-19 02:50,50.6304266666667,-96.980755,5.6,7.9,255,977.45,13.5,45,4.54,0.0,1003.54,234.7
2018-10-19 03:00,50.6304283333333,-96.980755,5.4,7.2,256,977.44,13.2,45,4.53,0.0,1003.57,360.0
2018-10-19 03:10,50.6304233333333,-96.980735,5.3,7.4,262,977.46,13.0,46,4.52,0.0,1003.62,360.0
2018-10-19 03:20,50.63043,-96.9807816666667,5.2,7.5,266,977.46,12.9,46,4.52,0.0,1003.63,360.0
2018-10-19 03:30,50.63043,-96.980755,6.1,9.1,265,977.38,13.0,45,4.53,0.0,1003.54,360.0
2018-10-19 03:40,50.63043,-96.9807516666667,7.3,10.5,264,977.26,13.2,44,4.55,0.0,1003.42,360.0
2018-10-19 03:50,50.6304266666667,-96.9807466666667,6.5,9.3,268,977.12,13.0,45,4.65,0.0,1003.29,360.0
2018-10-19 04:00,50.6304266666667,-96.9807466666667,4.7,7.1,274,977.03,12.4,47,4.71,0.0,1003.25,36.6
2018-10-19 04:10,50.6304166666667,-96.9807333333333,4.9,7.4,283,977.04,11.9,48,4.73,0.0,1003.30,36.6
2018-10-19 04:20,50.6304216666667,-96.980725,5.0,6.6,281,977.03,11.6,49,4.75,0.0,1003.33,36.6
2018-10-19 04:30,50.6304266666667,-96.98074,5.5,7.5,268,977.00,11.9,47,4.75,0.0,1003.30,36.6
2018-10-19 04:40,50.63043,-96.9807516666667,6.0,8.5,265,977.03,12.3,46,4.72,0.0,1003.33,36.6
2018-10-19 04:50,50.6304266666667,-96.9807483333333,5.4,7.3,273,977.00,12.1,47,4.73,0.0,1003.32,36.6
2018-10-19 05:00,50.630405,-96.98073,5.4,7.2,280,977.08,11.7,48,4.72,0.0,1003.44,148.9
2018-10-19 05:10,50.63043,-96.9807466666667,5.3,7.8,303,977.23,11.7,48,4.71,0.0,1003.59,148.9
2018-10-19 05:20,50.6304316666667,-96.9807483333333,3.7,4.8,338,977.40,11.3,50,4.70,0.0,1003.78,148.9
2018-10-19 05:30,50.630435,-96.9807483333333,4.5,6.4,314,977.37,11.2,49,4.68,0.0,1003.75,148.9
2018-10-19 05:40,50.63043,-96.9807633333333,6.1,10.1,302,977.17,11.5,48,4.67,0.0,1003.53,148.9
2018-10-19 05:50,50.63043,-96.98075,7.1,9.5,299,977.00,11.8,47,4.66,0.0,1003.37,148.9
2018-10-19 06:00,50.6304166666667,-96.9807416666667,7.8,11.6,297,977.01,11.9,47,4.66,0.0,1003.40,143.4
2018-10-19 06:10,50.6304283333333,-96.9807533333333,9.0,14.1,305,977.27,12.1,46,4.64,0.0,1003.68,143.4
2018-10-19 06:20,50.630425,-96.98075,9.3,14.2,317,977.25,12.5,45,4.63,0.0,1003.62,143.4
2018-10-19 06:30,50.6304233333333,-96.9807516666667,9.1,13.7,316,977.44,12.3,46,4.68,0.0,1003.81,143.4
2018-10-19 06:40,50.63043,-96.9806866666667,8.3,13.7,329,977.47,12.1,46,4.72,0.0,1003.86,143.4
2018-10-19 06:50,50.6304216666667,-96.98073,8.1,12.6,324,977.76,11.9,46,4.74,0.0,1004.18,143.4
2018-10-19 07:00,50.6304233333333,-96.9807366666667,8.0,12.0,323,977.74,11.8,46,4.74,0.0,1004.17,90.0
2018-10-19 07:10,50.630425,-96.980735,7.2,11.3,324,977.62,11.6,46,4.73,0.0,1004.08,90.0
2018-10-19 07:20,50.630435,-96.9807733333333,8.7,12.7,321,977.78,11.4,45,4.76,0.0,1004.25,90.0
2018-10-19 07:30,50.63043,-96.9807516666667,10.1,17.2,326,977.86,11.3,45,4.76,0.0,1004.32,90.0
2018-10-19 07:40,50.6304266666667,-96.9807483333333,9.1,16.0,326,977.90,11.2,45,4.76,0.0,1004.35,90.0
2018-10-19 07:50,50.6304266666667,-96.9807833333333,8.3,13.2,328,977.91,11.0,45,4.76,0.0,1004.37,90.0
2018-10-19 08:00,50.6304283333333,-96.9807483333333,7.6,11.8,327,977.97,10.8,46,4.74,0.0,1004.43,332.6
2018-10-19 08:10,50.630425,-96.9807416666667,7.2,11.3,317,978.02,10.6,46,4.73,0.0,1004.48,332.6
2018-10-19 08:20,50.63042,-96.98074,7.7,10.8,311,978.26,10.5,46,4.72,0.0,1004.73,332.6
2018-10-19 08:30,50.6304183333333,-96.9807383333333,7.8,11.7,314,978.27,10.3,46,4.75,0.0,1004.76,332.6
2018-10-19 08:40,50.63042,-96.9807383333333,7.4,11.7,308,978.30,10.2,46,4.76,0.0,1004.81,332.6
2018-10-19 08:50,50.63042,-96.98074,6.4,11.7,299,978.38,10.1,46,4.76,0.0,1004.89,332.6
2018-10-19 09:00,50.63042,-96.98074,6.3,10.2,298,978.47,10.0,47,4.76,0.0,1005.01,360.0
2018-10-19 09:10,50.6304516666667,-96.9807483333333,7.7,11.9,298,978.43,9.9,47,4.74,0.0,1004.98,360.0
2018-10-19 09:20,50.6304333333333,-96.9807433333333,8.7,12.4,305,978.47,9.8,47,4.71,0.0,1005.03,360.0
2018-10-19 09:30,50.6304316666667,-96.9807416666667,8.2,12.6,303,978.58,9.7,48,4.68,0.0,1005.15,360.0
2018-10-19 09:40,50.6304333333333,-96.9807433333333,8.0,13.4,299,978.67,9.4,49,4.66,0.0,1005.27,360.0
2018-10-19 09:50,50.6304333333333,-96.9807433333333,8.4,13.3,304,978.84,9.3,49,4.65,0.0,1005.46,360.0
2018-10-19 10:00,50.6304333333333,-96.9807433333333,8.5,13.9,300,978.96,9.1,50,4.65,0.0,1005.60,311.7
2018-10-19 10:10,50.6304333333333,-96.9807433333333,8.9,13.2,297,979.10,9.0,51,4.68,0.0,1005.75,311.7
2018-10-19 10:20,50.6304366666667,-96.980775,8.6,14.4,296,979.27,8.8,51,4.67,0.0,1005.95,311.7
2018-10-19 10:30,50.6304333333333,-96.980745,8.2,12.5,295,979.36,8.7,52,4.66,0.0,1006.05,311.7
2018-10-19 10:40,50.6304383333333,-96.9807616666667,7.5,12.7,297,979.49,8.4,53,4.65,0.0,1006.20,311.7
2018-10-19 10:50,50.6304333333333,-96.98075,8.1,12.8,295,979.48,8.2,54,4.63,0.0,1006.21,311.7
2018-10-19 11:00,50.630415,-96.98075,8.5,11.9,296,979.58,8.2,55,4.62,0.0,1006.32,360.0
2018-10-19 11:10,50.63041,-96.9807466666667,8.1,11.6,296,979.59,8.2,55,4.62,0.0,1006.33,360.0
2018-10-19 11:20,50.630415,-96.98075,8.6,13.2,296,979.69,8.2,55,4.63,0.0,1006.44,360.0
2018-10-19 11:30,50.6304166666667,-96.9807483333333,8.2,12.5,292,979.73,8.1,55,4.65,0.0,1006.50,360.0
2018-10-19 11:40,50.6304166666667,-96.9807466666667,7.6,10.6,289,979.93,7.9,56,4.64,0.0,1006.72,360.0
2018-10-19 11:50,50.6304183333333,-96.980745,7.8,12.5,288,979.99,7.6,57,4.62,0.0,1006.80,360.0
2018-10-19 12:00,50.63042,-96.980745,7.9,11.4,286,980.07,7.5,57,4.61,0.0,1006.90,0.0
2018-10-19 12:10,50.6304216666667,-96.980745,7.1,10.6,283,980.17,7.2,58,4.63,0.0,1007.01,0.0
2018-10-19 12:20,50.630445,-96.9807516666667,6.6,10.3,280,980.27,6.9,60,4.65,0.0,1007.14,0.0
2018-10-19 12:30,50.6304383333333,-96.9807583333333,6.5,10.9,283,980.31,6.6,61,4.67,0.0,1007.21,0.0
2018-10-19 12:40,50.6304233333333,-96.9807483333333,7.2,12.1,284,980.38,6.5,61,4.67,0.0,1007.31,0.0
2018-10-19 12:50,50.6304316666667,-96.9807533333333,7.3,11.8,288,980.50,6.5,61,4.68,0.0,1007.42,0.0
2018-10-19 13:00,50.6304383333333,-96.98075,7.4,13.4,287,980.68,6.4,61,4.70,0.0,1007.61,345.5
2018-10-19 13:10,50.63043,-96.9807483333333,8.8,14.2,295,980.75,6.4,61,4.69,0.0,1007.69,345.5
2018-10-19 13:20,50.630425,-96.9807483333333,11.1,17.6,300,980.82,6.7,59,4.68,0.0,1007.74,345.5
2018-10-19 13:30,50.6304133333333,-96.9807433333333,11.3,18.1,302,980.85,6.7,59,4.66,0.0,1007.78,345.5
2018-10-19 13:40,50.6304316666667,-96.9807616666667,11.3,16.3,303,980.99,6.8,59,4.64,0.0,1007.94,345.5
2018-10-19 13:50,50.63043,-96.9807533333333,11.6,18.0,307,981.09,6.8,60,4.60,0.0,1008.05,345.5
2018-10-19 14:00,50.6304283333333,-96.9807483333333,12.5,18.6,308,981.40,6.9,60,4.59,0.0,1008.38,360.0
2018-10-19 14:10,50.6304266666667,-96.98075,12.5,19.9,310,981.64,7.1,59,4.60,0.0,1008.63,360.0
2018-10-19 14:20,50.630425,-96.9807516666667,13.2,22.7,309,981.70,7.3,59,4.57,0.0,1008.70,360.0
2018-10-19 14:30,50.630425,-96.98075,13.0,21.2,312,981.78,7.3,59,4.54,0.0,1008.78,360.0
2018-10-19 14:40,50.6304266666667,-96.9807516666667,15.5,24.0,313,981.75,7.6,59,4.52,0.0,1008.74,360.0
2018-10-19 14:50,50.6304266666667,-96.98075,15.1,24.1,314,981.98,7.7,59,4.52,0.0,1008.97,360.0
2018-10-19 15:00,50.6304266666667,-96.98075,15.7,26.0,319,982.11,7.7,59,4.50,0.0,1009.10,311.7
2018-10-19 15:10,50.6304266666667,-96.98075,16.8,25.4,317,982.19,7.7,60,4.48,0.0,1009.17,311.7
2018-10-19 15:20,50.6304283333333,-96.9807516666667,14.4,21.6,317,982.55,7.8,60,4.47,0.0,1009.54,311.7
2018-10-19 15:30,50.6304216666667,-96.9807383333333,16.9,26.9,322,982.61,7.7,61,4.47,0.0,1009.60,311.7
2018-10-19 15:40,50.630425,-96.98074,14.8,26.6,322,983.06,7.4,63,4.46,0.0,1010.08,311.7
2018-10-19 15:50,50.6304333333333,-96.9807416666667,13.5,20.8,321,983.28,7.2,64,4.44,0.0,1010.31,311.7
2018-10-19 16:00,50.63042,-96.9807383333333,15.1,26.6,315,983.24,7.3,63,4.44,0.0,1010.26,165.5
2018-10-19 16:10,50.6304083333333,-96.9807616666667,15.8,25.7,326,983.37,7.4,63,4.45,0.0,1010.37,165.5
2018-10-19 16:20,50.63043,-96.9807433333333,14.2,22.6,322,983.55,7.5,63,4.47,0.0,1010.55,165.5
2018-10-19 16:30,50.6304333333333,-96.9807416666667,17.9,27.3,321,983.34,7.4,63,4.48,0.0,1010.33,165.5
2018-10-19 16:40,50.630435,-96.9807366666667,15.8,24.3,324,983.63,7.3,63,4.50,0.0,1010.62,165.5
2018-10-19 16:50,50.630435,-96.9807366666667,14.8,23.0,323,983.88,7.2,63,4.50,0.0,1010.88,165.5
2018-10-19 17:00,50.6304333333333,-96.98074,14.1,23.2,325,984.11,7.2,63,4.50,0.0,1011.12,12.6
2018-10-19 17:10,50.63043,-96.98076,13.6,21.7,325,984.23,7.2,63,4.51,0.0,1011.24,12.6
2018-10-19 17:20,50.6304266666667,-96.9807566666667,12.9,22.2,317,984.23,7.3,62,4.51,0.0,1011.24,12.6
2018-10-19 17:30,50.6304266666667,-96.9807516666667,14.2,25.2,308,984.14,7.3,61,4.52,0.0,1011.16,12.6
2018-10-19 17:40,50.6304283333333,-96.98075,15.9,25.7,307,984.03,7.6,58,4.53,0.0,1011.04,12.6
2018-10-19 17:50,50.6304266666667,-96.9807483333333,17.3,25.2,311,983.92,7.9,56,4.54,0.0,1010.92,12.6
2018-10-19 18:00,50.6304416666667,-96.9807533333333,14.0,21.1,313,984.16,7.8,56,4.57,0.0,1011.15,18.9
2018-10-19 18:10,50.6304516666667,-96.9807333333333,14.3,21.6,310,984.13,8.1,54,4.58,0.0,1011.11,18.9
2018-10-19 18:20,50.6304383333333,-96.98074,13.7,21.0,316,984.17,8.2,53,4.59,0.0,1011.15,18.9
2018-10-19 18:30,50.630435,-96.9807433333333,12.2,19.4,320,984.16,8.1,54,4.61,0.0,1011.15,18.9
2018-10-19 18:40,50.6304266666667,-96.9807483333333,14.7,22.6,301,983.87,8.7,50,4.61,0.0,1010.83,18.9
2018-10-19 18:50,50.6304233333333,-96.980735,16.8,25.2,305,983.66,9.2,46,4.61,0.0,1010.59,18.9
2018-10-19 19:00,50.6304233333333,-96.980735,14.9,26.7,304,983.74,9.6,44,4.63,0.0,1010.65,360.0
2018-10-19 19:10,50.630425,-96.98074,17.6,28.9,298,983.51,9.7,41,4.65,0.0,1010.40,360.0
2018-10-19 19:20,50.63043,-96.9807483333333,16.3,26.2,302,983.50,9.6,38,4.68,0.0,1010.40,360.0
2018-10-19 19:30,50.630415,-96.9807533333333,17.2,25.4,303,983.39,10.0,37,4.72,0.0,1010.25,360.0
2018-10-19 19:40,50.63043,-96.9807483333333,19.8,30.3,311,983.10,10.2,35,4.75,0.0,1009.93,360.0
2018-10-19 19:50,50.6304266666667,-96.98074,17.1,27.2,314,983.40,10.1,34,4.75,0.0,1010.24,360.0
2018-10-19 20:00,50.630425,-96.98074,17.5,28.1,308,983.41,9.7,35,4.75,0.0,1010.26,142.0
2018-10-19 20:10,50.630425,-96.98074,18.7,28.1,321,983.36,9.5,36,4.75,0.0,1010.22,142.0
2018-10-19 20:20,50.6304266666667,-96.98074,16.9,25.9,313,983.47,9.6,36,4.74,0.0,1010.33,142.0
2018-10-19 20:30,50.6304266666667,-96.98074,19.9,32.1,306,983.36,9.5,35,4.74,0.0,1010.19,142.0
2018-10-19 20:40,50.6304266666667,-96.98074,18.1,27.6,314,983.58,9.4,36,4.75,0.0,1010.40,142.0
2018-10-19 20:50,50.6304283333333,-96.9807416666667,18.0,28.0,316,983.63,9.2,37,4.76,0.0,1010.44,142.0
2018-10-19 21:00,50.6304266666667,-96.9807433333333,18.1,24.9,318,983.61,8.9,38,4.76,0.0,1010.43,156.5
2018-10-19 21:10,50.6304266666667,-96.9807433333333,16.6,26.1,310,983.71,8.7,39,4.76,0.0,1010.55,156.5
2018-10-19 21:20,50.6304266666667,-96.9807466666667,13.1,21.7,313,983.90,8.7,40,4.76,0.0,1010.72,156.5
2018-10-19 21:30,50.6304266666667,-96.9807466666667,16.6,31.4,309,983.65,8.8,41,4.76,0.0,1010.45,156.5
2018-10-19 21:40,50.630435,-96.98074,19.4,28.8,307,983.43,8.7,42,4.77,0.0,1010.24,156.5
2018-10-19 21:50,50.6304316666667,-96.9807366666667,16.1,23.6,306,983.71,8.4,42,4.77,0.0,1010.55,156.5
2018-10-19 22:00,50.6304266666667,-96.98074,13.1,19.7,314,984.02,8.2,42,4.78,0.0,1010.90,270.0
2018-10-19 22:10,50.6304266666667,-96.9807416666667,14.3,25.2,324,984.04,7.9,42,4.80,0.0,1010.93,270.0
2018-10-19 22:20,50.6304283333333,-96.9807416666667,19.3,30.8,342,984.00,7.4,42,4.81,0.0,1010.91,270.0
2018-10-19 22:30,50.63043,-96.98074,20.2,29.8,327,984.37,5.4,61,4.81,0.0,1011.40,270.0
2018-10-19 22:40,50.6304283333333,-96.9807416666667,13.0,20.7,301,984.95,4.0,71,4.83,0.0,1012.07,270.0
2018-10-19 22:50,50.6304116666667,-96.98073,12.1,17.6,300,985.04,4.4,65,4.81,0.0,1012.15,270.0
2018-10-19 23:00,50.6304233333333,-96.9807283333333,12.2,19.0,300,985.16,4.5,65,4.80,0.0,1012.28,90.0
2018-10-19 23:10,50.6304266666667,-96.9807383333333,12.5,22.0,304,985.19,4.5,67,4.79,0.0,1012.32,90.0
2018-10-19 23:20,50.6304283333333,-96.98074,10.8,20.8,303,985.10,4.1,70,4.79,0.0,1012.23,90.0
2018-10-19 23:30,50.6304416666667,-96.980745,7.6,11.6,296,985.31,3.9,72,4.81,0.0,1012.46,90.0
2018-10-19 23:40,50.6304333333333,-96.9807416666667,7.6,12.4,295,985.54,3.6,76,4.85,0.0,1012.74,90.0
